Location: Forest
(37.3641°N, 79.2902°W)
Time: 00:49:47
(UTC+00:00)

Hubble Space Telescope - Pass Details

Date: 30 January 2026
Orbit: 478 x 480 km, 28.5° (Epoch: 10 February)

Event Time Altitude Azimuth Distance (km) Brightness Sun altitude
Rises 23:23:16 0° 252° (WSW) 2,512 6.6 -9.1°
Reaches altitude 10° 23:25:56 10° 233° (SW) 1,634 4.5 -9.6°
Maximum altitude 23:28:35 18° 188° (S) 1,203 2.8 -10.1°
Drops below altitude 10° 23:31:15 10° 143° (SE) 1,634 3.0 -10.6°
Enters shadow 23:32:55 - 129° (SE) 2,156 3.5 -10.9°
